Time,TemperatureF,DewpointF,PressureIn,WindDirection,WindDirectionDegrees,WindSpeedMPH,WindSpeedGustMPH,Humidity,HourlyPrecipIn,Conditions,Clouds,dailyrainin,SoftwareType,DateUTC
2013-05-17 00:01:00,70.5,59.0,29.85,ESE,112,0.0,0.0,67,0.00,,---,0.00,VWS V14.01,2013-05-17 04:01:00,
2013-05-17 00:02:00,70.3,58.9,29.85,ESE,112,0.0,0.0,67,0.00,,---,0.00,VWS V14.01,2013-05-17 04:02:00,
2013-05-17 00:07:00,70.3,58.9,29.85,ESE,112,2.5,2.5,67,0.00,,---,0.00,VWS V14.01,2013-05-17 04:07:00,
2013-05-17 00:12:00,70.2,58.7,29.85,ESE,112,3.4,3.8,67,0.00,,---,0.00,VWS V14.01,2013-05-17 04:12:00,
2013-05-17 00:17:00,70.2,58.7,29.85,SE,135,1.1,2.7,67,0.00,,---,0.00,VWS V14.01,2013-05-17 04:17:00,
2013-05-17 00:22:00,70.2,59.1,29.85,ESE,112,1.6,3.6,68,0.00,,---,0.00,VWS V14.01,2013-05-17 04:22:00,
2013-05-17 00:27:00,70.2,58.7,29.85,ESE,112,2.9,4.7,67,0.00,,---,0.00,VWS V14.01,2013-05-17 04:27:00,
2013-05-17 00:32:00,70.0,58.5,29.85,SE,135,2.0,6.0,67,0.00,,---,0.00,VWS V14.01,2013-05-17 04:32:00,
2013-05-17 00:37:00,70.0,59.0,29.85,ESE,112,2.7,3.4,68,0.00,,---,0.00,VWS V14.01,2013-05-17 04:37:00,
2013-05-17 00:42:00,69.8,58.4,29.85,SE,135,2.2,3.8,67,0.00,,---,0.00,VWS V14.01,2013-05-17 04:42:00,
2013-05-17 00:47:00,69.8,58.8,29.85,ESE,112,2.5,3.4,68,0.00,,---,0.00,VWS V14.01,2013-05-17 04:47:00,
2013-05-17 00:52:00,69.6,58.6,29.85,ESE,112,1.6,2.9,68,0.00,,---,0.00,VWS V14.01,2013-05-17 04:52:00,
2013-05-17 00:57:00,69.6,58.6,29.82,SSE,158,0.0,2.0,68,0.00,,---,0.00,VWS V14.01,2013-05-17 04:57:00,
2013-05-17 01:02:00,69.6,59.0,29.82,SE,135,2.7,4.7,69,0.00,,---,0.00,VWS V14.01,2013-05-17 05:02:00,
2013-05-17 01:07:00,69.8,59.2,29.82,ESE,112,4.0,4.0,69,0.00,,---,0.00,VWS V14.01,2013-05-17 05:07:00,
2013-05-17 01:12:00,69.8,59.2,29.82,ESE,112,2.0,4.9,69,0.00,,---,0.00,VWS V14.01,2013-05-17 05:12:00,
2013-05-17 01:17:00,69.8,58.8,29.82,ESE,112,5.8,5.8,68,0.00,,---,0.00,VWS V14.01,2013-05-17 05:17:00,
2013-05-17 01:22:00,70.0,59.0,29.82,ESE,112,2.5,4.9,68,0.00,,---,0.00,VWS V14.01,2013-05-17 05:22:00,
2013-05-17 01:27:00,70.0,59.0,29.82,East,90,4.0,4.0,68,0.00,,---,0.00,VWS V14.01,2013-05-17 05:27:00,
2013-05-17 01:32:00,69.8,58.8,29.82,ESE,112,2.2,2.2,68,0.00,,---,0.00,VWS V14.01,2013-05-17 05:32:00,
2013-05-17 01:37:00,69.8,58.8,29.82,SE,135,3.4,3.8,68,0.00,,---,0.00,VWS V14.01,2013-05-17 05:37:00,
2013-05-17 01:42:00,69.8,58.8,29.82,ESE,112,3.8,3.8,68,0.00,,---,0.00,VWS V14.01,2013-05-17 05:42:00,
2013-05-17 01:47:00,69.8,58.8,29.82,SSE,158,1.6,1.6,68,0.00,,---,0.00,VWS V14.01,2013-05-17 05:47:00,
2013-05-17 01:52:00,69.8,58.8,29.82,East,90,2.9,2.9,68,0.00,,---,0.00,VWS V14.01,2013-05-17 05:52:00,
2013-05-17 01:57:00,69.6,58.6,29.82,SSE,158,0.0,0.0,68,0.00,,---,0.00,VWS V14.01,2013-05-17 05:57:00,
2013-05-17 02:02:00,69.3,58.3,29.82,South,180,0.0,0.0,68,0.00,,---,0.00,VWS V14.01,2013-05-17 06:02:00,
2013-05-17 02:07:00,68.9,57.9,29.82,South,180,0.0,0.0,68,0.00,,---,0.00,VWS V14.01,2013-05-17 06:07:00,
2013-05-17 02:12:00,68.5,57.6,29.82,SE,135,0.0,0.0,68,0.00,,---,0.00,VWS V14.01,2013-05-17 06:12:00,
2013-05-17 02:17:00,68.7,58.2,29.82,ESE,112,3.8,3.8,69,0.00,,---,0.00,VWS V14.01,2013-05-17 06:17:00,
2013-05-17 02:22:00,68.7,58.5,29.82,ESE,112,0.0,0.0,70,0.00,,---,0.00,VWS V14.01,2013-05-17 06:22:00,
2013-05-17 02:27:00,68.9,58.7,29.82,East,90,0.9,1.1,70,0.00,,---,0.00,VWS V14.01,2013-05-17 06:27:00,
2013-05-17 02:32:00,68.9,58.7,29.82,ENE,68,0.0,0.0,70,0.00,,---,0.00,VWS V14.01,2013-05-17 06:32:00,
2013-05-17 02:37:00,68.7,58.2,29.82,ESE,112,0.0,0.0,69,0.00,,---,0.00,VWS V14.01,2013-05-17 06:37:00,
2013-05-17 02:42:00,68.7,58.5,29.82,ESE,112,0.0,0.0,70,0.00,,---,0.00,VWS V14.01,2013-05-17 06:42:00,
2013-05-17 02:47:00,68.7,59.0,29.82,ESE,112,4.9,4.9,71,0.00,,---,0.00,VWS V14.01,2013-05-17 06:47:00,
2013-05-17 02:52:00,68.7,58.5,29.82,ESE,112,0.0,0.0,70,0.00,,---,0.00,VWS V14.01,2013-05-17 06:52:00,
2013-05-17 02:57:00,68.5,58.4,29.82,ESE,112,0.0,0.0,70,0.00,,---,0.00,VWS V14.01,2013-05-17 06:57:00,
2013-05-17 03:02:00,68.2,58.0,29.82,SE,135,0.9,0.9,70,0.00,,---,0.00,VWS V14.01,2013-05-17 07:02:00,
2013-05-17 03:07:00,68.0,57.9,29.82,SE,135,0.0,0.0,70,0.00,,---,0.00,VWS V14.01,2013-05-17 07:07:00,
2013-05-17 03:12:00,67.3,57.2,29.82,SE,135,0.0,0.0,70,0.00,,---,0.00,VWS V14.01,2013-05-17 07:12:00,
2013-05-17 03:17:00,66.9,57.2,29.82,SE,135,0.0,0.0,71,0.00,,---,0.00,VWS V14.01,2013-05-17 07:17:00,
2013-05-17 03:22:00,66.9,57.2,29.82,SE,135,0.0,0.0,71,0.00,,---,0.00,VWS V14.01,2013-05-17 07:22:00,
2013-05-17 03:27:00,66.7,57.4,29.82,SE,135,0.0,0.0,72,0.00,,---,0.00,VWS V14.01,2013-05-17 07:27:00,
2013-05-17 03:32:00,66.4,57.1,29.82,SE,135,0.0,0.0,72,0.00,,---,0.00,VWS V14.01,2013-05-17 07:32:00,
2013-05-17 03:37:00,66.2,56.9,29.82,SSE,158,0.0,0.0,72,0.00,,---,0.00,VWS V14.01,2013-05-17 07:37:00,
2013-05-17 03:42:00,65.8,57.0,29.79,East,90,0.0,0.0,73,0.00,,---,0.00,VWS V14.01,2013-05-17 07:42:00,
2013-05-17 03:47:00,65.7,57.2,29.79,East,90,0.0,0.0,74,0.00,,---,0.00,VWS V14.01,2013-05-17 07:47:00,
2013-05-17 03:52:00,65.3,57.2,29.79,East,90,0.0,0.0,75,0.00,,---,0.00,VWS V14.01,2013-05-17 07:52:00,
2013-05-17 03:57:00,65.1,57.0,29.82,East,90,0.0,0.0,75,0.00,,---,0.00,VWS V14.01,2013-05-17 07:57:00,
2013-05-17 04:02:00,64.9,57.2,29.82,ESE,112,0.0,0.0,76,0.00,,---,0.00,VWS V14.01,2013-05-17 08:02:00,
2013-05-17 04:07:00,64.9,57.2,29.82,South,180,0.0,0.0,76,0.00,,---,0.00,VWS V14.01,2013-05-17 08:07:00,
2013-05-17 04:12:00,64.9,57.6,29.82,South,180,0.0,0.0,77,0.00,,---,0.00,VWS V14.01,2013-05-17 08:12:00,
2013-05-17 04:18:00,64.6,57.6,29.82,South,180,0.0,0.0,78,0.00,,---,0.00,VWS V14.01,2013-05-17 08:18:00,
2013-05-17 04:23:00,64.4,57.4,29.82,South,180,0.0,0.0,78,0.00,,---,0.00,VWS V14.01,2013-05-17 08:23:00,
2013-05-17 04:28:00,64.6,57.9,29.82,SW,225,0.0,0.0,79,0.00,,---,0.00,VWS V14.01,2013-05-17 08:28:00,
2013-05-17 04:33:00,64.6,57.9,29.82,SW,225,0.0,0.0,79,0.00,,---,0.00,VWS V14.01,2013-05-17 08:33:00,
2013-05-17 04:38:00,64.6,57.9,29.82,SW,225,0.0,0.0,79,0.00,,---,0.00,VWS V14.01,2013-05-17 08:38:00,
2013-05-17 04:43:00,64.6,58.3,29.82,WSW,248,0.0,0.0,80,0.00,,---,0.00,VWS V14.01,2013-05-17 08:43:00,
2013-05-17 04:48:00,64.4,58.1,29.82,WSW,248,0.0,0.0,80,0.00,,---,0.00,VWS V14.01,2013-05-17 08:48:00,
2013-05-17 04:53:00,64.4,58.5,29.82,WSW,248,0.0,0.0,81,0.00,,---,0.00,VWS V14.01,2013-05-17 08:53:00,
2013-05-17 04:58:00,64.2,58.3,29.82,WSW,248,0.0,0.0,81,0.00,,---,0.00,VWS V14.01,2013-05-17 08:58:00,
2013-05-17 05:03:00,64.0,58.1,29.82,WSW,248,0.0,0.0,81,0.00,,---,0.00,VWS V14.01,2013-05-17 09:03:00,
2013-05-17 05:08:00,63.7,58.1,29.82,WSW,248,0.0,0.0,82,0.00,,---,0.00,VWS V14.01,2013-05-17 09:08:00,
2013-05-17 05:13:00,63.5,57.9,29.82,WSW,248,0.0,0.0,82,0.00,,---,0.00,VWS V14.01,2013-05-17 09:13:00,
2013-05-17 05:18:00,63.3,57.7,29.82,WSW,248,0.0,0.0,82,0.00,,---,0.00,VWS V14.01,2013-05-17 09:18:00,
2013-05-17 05:23:00,63.1,57.9,29.82,WSW,248,0.0,0.0,83,0.00,,---,0.00,VWS V14.01,2013-05-17 09:23:00,
2013-05-17 05:28:00,63.1,57.9,29.82,WSW,248,0.0,0.0,83,0.00,,---,0.00,VWS V14.01,2013-05-17 09:28:00,
2013-05-17 05:33:00,63.0,58.1,29.82,WSW,248,0.0,0.0,84,0.00,,---,0.00,VWS V14.01,2013-05-17 09:33:00,
2013-05-17 05:38:00,63.0,58.1,29.82,WSW,248,0.0,0.0,84,0.00,,---,0.00,VWS V14.01,2013-05-17 09:38:00,
2013-05-17 05:43:00,62.8,57.9,29.82,WSW,248,0.0,0.0,84,0.00,,---,0.00,VWS V14.01,2013-05-17 09:43:00,
2013-05-17 05:48:00,62.8,58.2,29.82,WSW,248,0.0,0.0,85,0.00,,---,0.00,VWS V14.01,2013-05-17 09:48:00,
2013-05-17 05:53:00,62.6,58.0,29.82,WSW,248,0.0,0.0,85,0.00,,---,0.00,VWS V14.01,2013-05-17 09:53:00,
2013-05-17 05:58:00,62.6,58.0,29.85,WSW,248,0.0,0.0,85,0.00,,---,0.00,VWS V14.01,2013-05-17 09:58:00,
2013-05-17 06:03:00,62.4,58.2,29.85,WSW,248,0.0,0.0,86,0.00,,---,0.00,VWS V14.01,2013-05-17 10:03:00,
2013-05-17 06:08:00,62.2,58.0,29.85,WSW,248,0.0,0.0,86,0.00,,---,0.00,VWS V14.01,2013-05-17 10:08:00,
2013-05-17 06:13:00,62.2,58.0,29.82,WSW,248,0.0,0.0,86,0.00,,---,0.00,VWS V14.01,2013-05-17 10:13:00,
2013-05-17 06:18:00,62.2,58.3,29.82,WSW,248,0.0,0.0,87,0.00,,---,0.00,VWS V14.01,2013-05-17 10:18:00,
2013-05-17 06:23:00,62.1,58.2,29.82,WSW,248,0.0,0.0,87,0.00,,---,0.00,VWS V14.01,2013-05-17 10:23:00,
2013-05-17 06:28:00,62.1,58.2,29.82,WSW,248,0.0,0.0,87,0.00,,---,0.00,VWS V14.01,2013-05-17 10:28:00,
2013-05-17 06:33:00,62.1,58.5,29.82,WSW,248,0.0,0.0,88,0.00,,---,0.00,VWS V14.01,2013-05-17 10:33:00,
2013-05-17 06:38:00,62.2,58.7,29.82,WSW,248,0.0,0.0,88,0.00,,---,0.00,VWS V14.01,2013-05-17 10:38:00,
2013-05-17 06:43:00,62.2,58.7,29.85,WSW,248,0.0,0.0,88,0.00,,---,0.00,VWS V14.01,2013-05-17 10:43:00,
2013-05-17 06:48:00,62.4,59.1,29.85,WSW,248,0.0,0.0,89,0.00,,---,0.00,VWS V14.01,2013-05-17 10:48:00,
2013-05-17 06:53:00,62.4,59.1,29.85,WSW,248,0.0,0.0,89,0.00,,---,0.00,VWS V14.01,2013-05-17 10:53:00,
2013-05-17 06:58:00,62.6,59.3,29.85,WSW,248,0.0,0.0,89,0.00,,---,0.00,VWS V14.01,2013-05-17 10:58:00,
2013-05-17 07:03:00,63.1,59.8,29.85,WSW,248,0.0,0.0,89,0.00,,---,0.00,VWS V14.01,2013-05-17 11:03:00,
2013-05-17 07:08:00,63.5,60.2,29.85,WSW,248,0.0,0.0,89,0.00,,---,0.00,VWS V14.01,2013-05-17 11:08:00,
2013-05-17 07:13:00,63.9,60.6,29.85,WSW,248,0.0,0.0,89,0.00,,---,0.00,VWS V14.01,2013-05-17 11:13:00,
2013-05-17 07:18:00,64.2,60.9,29.85,WSW,248,0.0,0.0,89,0.00,,---,0.00,VWS V14.01,2013-05-17 11:18:00,
2013-05-17 07:23:00,64.6,61.3,29.85,WSW,248,0.0,0.0,89,0.00,,---,0.00,VWS V14.01,2013-05-17 11:23:00,
2013-05-17 07:28:00,65.1,61.8,29.85,WSW,248,0.0,0.0,89,0.00,,---,0.00,VWS V14.01,2013-05-17 11:28:00,
2013-05-17 07:33:00,65.8,62.8,29.85,WSW,248,0.0,0.0,90,0.00,,---,0.00,VWS V14.01,2013-05-17 11:33:00,
2013-05-17 07:38:00,66.4,63.4,29.85,WSW,248,0.0,0.0,90,0.00,,---,0.00,VWS V14.01,2013-05-17 11:38:00,
2013-05-17 07:43:00,67.3,64.2,29.85,WSW,248,0.0,0.0,90,0.00,,---,0.00,VWS V14.01,2013-05-17 11:43:00,
2013-05-17 07:48:00,68.0,64.6,29.85,WSW,248,0.0,0.0,89,0.00,,---,0.00,VWS V14.01,2013-05-17 11:48:00,
2013-05-17 07:53:00,68.5,64.8,29.85,WSW,248,0.0,0.0,88,0.00,,---,0.00,VWS V14.01,2013-05-17 11:53:00,
2013-05-17 07:58:00,69.1,65.1,29.85,NNE,22,0.0,0.0,87,0.00,,---,0.00,VWS V14.01,2013-05-17 11:58:00,
2013-05-17 08:04:00,69.8,65.1,29.85,NNE,22,0.0,0.0,85,0.00,,---,0.00,VWS V14.01,2013-05-17 12:04:00,
2013-05-17 08:08:00,70.3,64.9,29.85,NNE,22,0.9,1.3,83,0.00,,---,0.00,VWS V14.01,2013-05-17 12:08:00,
2013-05-17 08:14:00,72.1,66.3,29.85,NNE,22,2.0,2.7,82,0.00,,---,0.00,VWS V14.01,2013-05-17 12:14:00,
2013-05-17 08:19:00,74.5,67.9,29.85,NNE,22,0.0,1.3,80,0.00,,---,0.00,VWS V14.01,2013-05-17 12:19:00,
2013-05-17 08:24:00,76.6,68.5,29.85,NNE,22,1.3,2.0,76,0.00,,---,0.00,VWS V14.01,2013-05-17 12:24:00,
2013-05-17 08:29:00,78.3,68.5,29.85,NNE,22,2.0,2.2,72,0.00,,---,0.00,VWS V14.01,2013-05-17 12:29:00,
2013-05-17 08:34:00,80.1,68.1,29.85,NNE,22,0.0,0.0,67,0.00,,---,0.00,VWS V14.01,2013-05-17 12:34:00,
2013-05-17 08:39:00,81.0,66.7,29.85,East,90,0.0,0.0,62,0.00,,---,0.00,VWS V14.01,2013-05-17 12:39:00,
2013-05-17 08:44:00,82.0,66.8,29.85,East,90,2.0,2.0,60,0.00,,---,0.00,VWS V14.01,2013-05-17 12:44:00,
2013-05-17 08:49:00,83.1,65.3,29.85,NNE,22,2.5,2.9,55,0.00,,---,0.00,VWS V14.01,2013-05-17 12:49:00,
2013-05-17 08:54:00,83.8,64.3,29.85,East,90,3.1,3.1,52,0.00,,---,0.00,VWS V14.01,2013-05-17 12:54:00,
2013-05-17 08:59:00,83.8,63.2,29.88,NE,45,1.3,2.9,50,0.00,,---,0.00,VWS V14.01,2013-05-17 12:59:00,
2013-05-17 09:04:00,85.5,64.7,29.88,NE,45,0.0,2.0,50,0.00,,---,0.00,VWS V14.01,2013-05-17 13:04:00,
2013-05-17 09:09:00,86.4,64.4,29.88,South,180,0.0,1.6,48,0.00,,---,0.00,VWS V14.01,2013-05-17 13:09:00,
2013-05-17 09:14:00,86.9,61.1,29.88,SSE,158,3.1,6.7,42,0.00,,---,0.00,VWS V14.01,2013-05-17 13:14:00,
2013-05-17 09:19:00,87.1,63.2,29.88,ENE,68,0.0,0.0,45,0.00,,---,0.00,VWS V14.01,2013-05-17 13:19:00,
2013-05-17 09:24:00,87.6,61.7,29.88,ESE,112,2.7,3.4,42,0.00,,---,0.00,VWS V14.01,2013-05-17 13:24:00,
2013-05-17 09:29:00,88.0,62.0,29.85,East,90,1.3,2.5,42,0.00,,---,0.00,VWS V14.01,2013-05-17 13:29:00,
2013-05-17 09:34:00,88.9,62.2,29.85,SSW,202,2.2,2.2,41,0.00,,---,0.00,VWS V14.01,2013-05-17 13:34:00,
2013-05-17 09:39:00,88.5,60.4,29.85,SSW,202,2.5,3.4,39,0.00,,---,0.00,VWS V14.01,2013-05-17 13:39:00,
2013-05-17 09:44:00,88.5,59.7,29.88,South,180,2.5,2.5,38,0.00,,---,0.00,VWS V14.01,2013-05-17 13:44:00,
2013-05-17 09:49:00,89.4,59.7,29.88,East,90,2.9,2.9,37,0.00,,---,0.00,VWS V14.01,2013-05-17 13:49:00,
2013-05-17 09:54:00,90.3,61.3,29.88,ESE,112,1.1,2.7,38,0.00,,---,0.00,VWS V14.01,2013-05-17 13:54:00,
2013-05-17 09:59:00,91.0,61.2,29.88,ESE,112,5.6,5.6,37,0.00,,---,0.00,VWS V14.01,2013-05-17 13:59:00,
2013-05-17 10:04:00,90.5,60.7,29.88,ENE,68,0.0,2.5,37,0.00,,---,0.00,VWS V14.01,2013-05-17 14:04:00,
2013-05-17 10:09:00,91.4,59.9,29.88,SSE,158,3.4,3.4,35,0.00,,---,0.00,VWS V14.01,2013-05-17 14:09:00,
2013-05-17 10:14:00,92.5,61.7,29.88,SSW,202,2.5,3.6,36,0.00,,---,0.00,VWS V14.01,2013-05-17 14:14:00,
2013-05-17 10:19:00,91.8,56.9,29.88,ESE,112,3.4,3.8,31,0.00,,---,0.00,VWS V14.01,2013-05-17 14:19:00,
2013-05-17 10:24:00,91.8,58.6,29.88,East,90,1.6,2.0,33,0.00,,---,0.00,VWS V14.01,2013-05-17 14:24:00,
2013-05-17 10:29:00,90.0,57.0,29.88,NE,45,3.8,3.8,33,0.00,,---,0.00,VWS V14.01,2013-05-17 14:29:00,
2013-05-17 10:34:00,91.4,59.1,29.88,SSE,158,4.0,4.0,34,0.00,,---,0.00,VWS V14.01,2013-05-17 14:34:00,
2013-05-17 10:39:00,88.9,56.1,29.88,East,90,7.4,7.4,33,0.00,,---,0.00,VWS V14.01,2013-05-17 14:39:00,
2013-05-17 10:44:00,88.7,55.9,29.88,WSW,248,2.5,2.5,33,0.00,,---,0.00,VWS V14.01,2013-05-17 14:44:00,
2013-05-17 10:49:00,86.7,55.0,29.88,ENE,68,1.1,1.3,34,0.00,,---,0.00,VWS V14.01,2013-05-17 14:49:00,
2013-05-17 10:54:00,90.1,58.8,29.88,ESE,112,1.6,3.1,35,0.00,,---,0.00,VWS V14.01,2013-05-17 14:54:00,
2013-05-17 10:59:00,92.1,57.2,29.88,SE,135,1.6,1.6,31,0.00,,---,0.00,VWS V14.01,2013-05-17 14:59:00,
2013-05-17 11:04:00,94.5,59.2,29.88,SW,225,0.9,1.1,31,0.00,,---,0.00,VWS V14.01,2013-05-17 15:04:00,
2013-05-17 11:09:00,94.6,59.3,29.88,SE,135,2.7,3.8,31,0.00,,---,0.00,VWS V14.01,2013-05-17 15:09:00,
2013-05-17 11:14:00,94.3,57.2,29.88,WSW,248,2.9,4.3,29,0.00,,---,0.00,VWS V14.01,2013-05-17 15:14:00,
2013-05-17 11:19:00,90.7,55.0,29.88,SE,135,2.7,3.6,30,0.00,,---,0.00,VWS V14.01,2013-05-17 15:19:00,
2013-05-17 11:24:00,90.3,55.6,29.88,SE,135,1.3,2.2,31,0.00,,---,0.00,VWS V14.01,2013-05-17 15:24:00,
2013-05-17 11:29:00,92.7,56.7,29.88,North,0,2.7,2.7,30,0.00,,---,0.00,VWS V14.01,2013-05-17 15:29:00,
2013-05-17 11:34:00,92.8,56.9,29.88,North,0,1.3,2.2,30,0.00,,---,0.00,VWS V14.01,2013-05-17 15:34:00,
2013-05-17 11:39:00,92.8,56.9,29.88,NE,45,2.0,2.9,30,0.00,,---,0.00,VWS V14.01,2013-05-17 15:39:00,
2013-05-17 11:44:00,91.6,55.8,29.88,NNE,22,3.1,3.1,30,0.00,,---,0.00,VWS V14.01,2013-05-17 15:44:00,
2013-05-17 11:49:00,89.2,54.7,29.88,SE,135,1.6,4.9,31,0.00,,---,0.00,VWS V14.01,2013-05-17 15:49:00,
2013-05-17 11:54:00,93.2,57.2,29.88,WNW,292,3.8,3.8,30,0.00,,---,0.00,VWS V14.01,2013-05-17 15:54:00,
2013-05-17 11:59:00,95.0,57.8,29.88,SW,225,2.0,2.7,29,0.00,,---,0.00,VWS V14.01,2013-05-17 15:59:00,
2013-05-17 12:04:00,96.1,57.7,29.88,WNW,292,2.5,2.5,28,0.00,,---,0.00,VWS V14.01,2013-05-17 16:04:00,
2013-05-17 12:10:00,96.3,57.9,29.88,SW,225,1.6,2.5,28,0.00,,---,0.00,VWS V14.01,2013-05-17 16:10:00,
2013-05-17 12:14:00,95.9,57.6,29.88,West,270,3.8,3.8,28,0.00,,---,0.00,VWS V14.01,2013-05-17 16:14:00,
2013-05-17 12:20:00,96.1,57.7,29.88,WSW,248,2.9,4.9,28,0.00,,---,0.00,VWS V14.01,2013-05-17 16:20:00,
2013-05-17 12:25:00,95.2,57.0,29.88,NW,315,2.9,2.9,28,0.00,,---,0.00,VWS V14.01,2013-05-17 16:25:00,
2013-05-17 12:30:00,93.9,56.9,29.88,ENE,68,2.9,3.4,29,0.00,,---,0.00,VWS V14.01,2013-05-17 16:30:00,
2013-05-17 12:35:00,92.1,55.3,29.88,SW,225,3.4,3.8,29,0.00,,---,0.00,VWS V14.01,2013-05-17 16:35:00,
2013-05-17 12:40:00,89.8,54.2,29.88,WSW,248,1.1,1.1,30,0.00,,---,0.00,VWS V14.01,2013-05-17 16:40:00,
2013-05-17 12:45:00,89.6,55.0,29.85,SW,225,0.0,2.0,31,0.00,,---,0.00,VWS V14.01,2013-05-17 16:45:00,
2013-05-17 12:50:00,89.4,55.7,29.85,SW,225,2.0,2.9,32,0.00,,---,0.00,VWS V14.01,2013-05-17 16:50:00,
2013-05-17 12:55:00,87.8,54.3,29.85,SE,135,2.7,3.4,32,0.00,,---,0.00,VWS V14.01,2013-05-17 16:55:00,
2013-05-17 13:00:00,87.6,55.0,29.85,SW,225,0.0,2.2,33,0.00,,---,0.00,VWS V14.01,2013-05-17 17:00:00,
2013-05-17 13:05:00,90.5,57.5,29.85,WNW,292,2.9,5.6,33,0.00,,---,0.00,VWS V14.01,2013-05-17 17:05:00,
2013-05-17 13:10:00,91.4,57.4,29.85,WSW,248,2.0,6.7,32,0.00,,---,0.00,VWS V14.01,2013-05-17 17:10:00,
2013-05-17 13:15:00,90.7,56.8,29.85,SE,135,3.1,3.1,32,0.00,,---,0.00,VWS V14.01,2013-05-17 17:15:00,
2013-05-17 13:20:00,90.9,57.0,29.85,ENE,68,0.9,2.0,32,0.00,,---,0.00,VWS V14.01,2013-05-17 17:20:00,
2013-05-17 13:25:00,89.2,54.7,29.85,West,270,4.3,4.3,31,0.00,,---,0.00,VWS V14.01,2013-05-17 17:25:00,
2013-05-17 13:30:00,90.9,57.0,29.85,ENE,68,1.3,2.9,32,0.00,,---,0.00,VWS V14.01,2013-05-17 17:30:00,
2013-05-17 13:35:00,90.7,55.9,29.85,ESE,112,4.3,4.3,31,0.00,,---,0.00,VWS V14.01,2013-05-17 17:35:00,
2013-05-17 13:40:00,92.8,56.9,29.85,WSW,248,3.6,3.6,30,0.00,,---,0.00,VWS V14.01,2013-05-17 17:40:00,
2013-05-17 13:45:00,94.3,58.1,29.85,West,270,4.0,4.0,30,0.00,,---,0.00,VWS V14.01,2013-05-17 17:45:00,
2013-05-17 13:50:00,94.3,57.2,29.85,West,270,3.6,3.6,29,0.00,,---,0.00,VWS V14.01,2013-05-17 17:50:00,
2013-05-17 13:55:00,91.9,56.1,29.85,NE,45,2.0,2.5,30,0.00,,---,0.00,VWS V14.01,2013-05-17 17:55:00,
2013-05-17 14:00:00,93.0,55.1,29.85,SE,135,3.6,3.6,28,0.00,,---,0.00,VWS V14.01,2013-05-17 18:00:00,
2013-05-17 14:05:00,94.8,58.6,29.85,SSE,158,4.3,4.3,30,0.00,,---,0.00,VWS V14.01,2013-05-17 18:05:00,
2013-05-17 14:10:00,94.3,56.2,29.85,East,90,2.0,2.5,28,0.00,,---,0.00,VWS V14.01,2013-05-17 18:10:00,
2013-05-17 14:15:00,95.0,55.8,29.85,East,90,2.7,3.4,27,0.00,,---,0.00,VWS V14.01,2013-05-17 18:15:00,
2013-05-17 14:20:00,95.7,56.4,29.85,WNW,292,2.5,2.5,27,0.00,,---,0.00,VWS V14.01,2013-05-17 18:20:00,
2013-05-17 14:25:00,95.5,56.3,29.82,ESE,112,5.8,5.8,27,0.00,,---,0.00,VWS V14.01,2013-05-17 18:25:00,
2013-05-17 14:30:00,96.6,58.2,29.82,East,90,1.6,2.0,28,0.00,,---,0.00,VWS V14.01,2013-05-17 18:30:00,
2013-05-17 14:35:00,96.4,57.0,29.82,WNW,292,5.4,5.4,27,0.00,,---,0.00,VWS V14.01,2013-05-17 18:35:00,
2013-05-17 14:40:00,96.1,56.7,29.82,SSW,202,0.0,1.1,27,0.00,,---,0.00,VWS V14.01,2013-05-17 18:40:00,
2013-05-17 14:45:00,94.1,56.0,29.82,NNW,338,2.7,3.1,28,0.00,,---,0.00,VWS V14.01,2013-05-17 18:45:00,
2013-05-17 14:50:00,95.4,56.1,29.82,NNE,22,2.7,2.7,27,0.00,,---,0.00,VWS V14.01,2013-05-17 18:50:00,
2013-05-17 14:55:00,95.9,57.6,29.82,SW,225,5.4,5.4,28,0.00,,---,0.00,VWS V14.01,2013-05-17 18:55:00,
2013-05-17 15:00:00,96.4,57.0,29.82,SE,135,3.6,4.0,27,0.00,,---,0.00,VWS V14.01,2013-05-17 19:00:00,
2013-05-17 15:05:00,96.4,57.0,29.82,NNE,22,3.1,3.1,27,0.00,,---,0.00,VWS V14.01,2013-05-17 19:05:00,
2013-05-17 15:10:00,97.2,56.6,29.82,ENE,68,2.7,3.4,26,0.00,,---,0.00,VWS V14.01,2013-05-17 19:10:00,
2013-05-17 15:15:00,96.4,56.0,29.82,ESE,112,2.9,5.6,26,0.00,,---,0.00,VWS V14.01,2013-05-17 19:15:00,
2013-05-17 15:20:00,93.7,54.7,29.82,NNE,22,1.3,2.7,27,0.00,,---,0.00,VWS V14.01,2013-05-17 19:20:00,
2013-05-17 15:25:00,92.8,54.0,29.82,ESE,112,2.7,3.4,27,0.00,,---,0.00,VWS V14.01,2013-05-17 19:25:00,
2013-05-17 15:30:00,91.4,53.8,29.82,SE,135,2.7,3.8,28,0.00,,---,0.00,VWS V14.01,2013-05-17 19:30:00,
2013-05-17 15:35:00,91.9,54.2,29.82,ESE,112,0.9,1.3,28,0.00,,---,0.00,VWS V14.01,2013-05-17 19:35:00,
2013-05-17 15:40:00,95.4,57.1,29.82,ENE,68,3.8,5.4,28,0.00,,---,0.00,VWS V14.01,2013-05-17 19:40:00,
2013-05-17 15:46:00,94.3,55.2,29.82,NNE,22,1.6,2.5,27,0.00,,---,0.00,VWS V14.01,2013-05-17 19:46:00,
2013-05-17 15:51:00,94.6,55.5,29.82,NE,45,3.6,3.6,27,0.00,,---,0.00,VWS V14.01,2013-05-17 19:51:00,
2013-05-17 15:56:00,95.0,55.8,29.82,ESE,112,2.7,5.6,27,0.00,,---,0.00,VWS V14.01,2013-05-17 19:56:00,
2013-05-17 16:01:00,93.2,55.3,29.82,NE,45,2.2,5.6,28,0.00,,---,0.00,VWS V14.01,2013-05-17 20:01:00,
2013-05-17 16:06:00,93.9,54.9,29.82,NNE,22,2.7,3.1,27,0.00,,---,0.00,VWS V14.01,2013-05-17 20:06:00,
2013-05-17 16:11:00,95.4,56.1,29.79,East,90,2.0,2.7,27,0.00,,---,0.00,VWS V14.01,2013-05-17 20:11:00,
2013-05-17 16:16:00,92.5,54.7,29.79,NE,45,2.9,2.9,28,0.00,,---,0.00,VWS V14.01,2013-05-17 20:16:00,
2013-05-17 16:21:00,92.7,55.8,29.79,East,90,1.3,3.1,29,0.00,,---,0.00,VWS V14.01,2013-05-17 20:21:00,
2013-05-17 16:26:00,91.0,56.2,29.82,ENE,68,2.9,3.6,31,0.00,,---,0.00,VWS V14.01,2013-05-17 20:26:00,
2013-05-17 16:31:00,89.8,59.3,29.82,NNE,22,5.6,5.6,36,0.00,,---,0.00,VWS V14.01,2013-05-17 20:31:00,
2013-05-17 16:36:00,88.7,59.9,29.82,NE,45,6.0,6.0,38,0.00,,---,0.00,VWS V14.01,2013-05-17 20:36:00,
2013-05-17 16:41:00,87.6,59.6,29.79,North,0,5.4,5.4,39,0.00,,---,0.00,VWS V14.01,2013-05-17 20:41:00,
2013-05-17 16:46:00,86.9,60.4,29.79,ENE,68,1.6,5.6,41,0.00,,---,0.00,VWS V14.01,2013-05-17 20:46:00,
2013-05-17 16:51:00,86.4,59.9,29.79,NE,45,4.3,5.4,41,0.00,,---,0.00,VWS V14.01,2013-05-17 20:51:00,
2013-05-17 16:56:00,87.4,61.5,29.79,SSE,158,3.6,6.5,42,0.00,,---,0.00,VWS V14.01,2013-05-17 20:56:00,
2013-05-17 17:01:00,88.7,61.3,29.79,ENE,68,8.1,9.2,40,0.00,,---,0.00,VWS V14.01,2013-05-17 21:01:00,
2013-05-17 17:06:00,87.3,60.7,29.79,East,90,4.7,6.5,41,0.00,,---,0.00,VWS V14.01,2013-05-17 21:06:00,
2013-05-17 17:11:00,86.7,60.2,29.82,ENE,68,4.0,4.0,41,0.00,,---,0.00,VWS V14.01,2013-05-17 21:11:00,
2013-05-17 17:16:00,87.1,61.2,29.82,East,90,2.5,5.8,42,0.00,,---,0.00,VWS V14.01,2013-05-17 21:16:00,
2013-05-17 17:21:00,88.2,61.5,29.82,ENE,68,6.3,6.3,41,0.00,,---,0.00,VWS V14.01,2013-05-17 21:21:00,
2013-05-17 17:26:00,89.8,62.3,29.82,SE,135,3.6,3.6,40,0.00,,---,0.00,VWS V14.01,2013-05-17 21:26:00,
2013-05-17 17:31:00,89.6,61.4,29.82,SE,135,4.7,6.0,39,0.00,,---,0.00,VWS V14.01,2013-05-17 21:31:00,
2013-05-17 17:36:00,88.9,60.8,29.82,NW,315,2.2,7.4,39,0.00,,---,0.00,VWS V14.01,2013-05-17 21:36:00,
2013-05-17 17:41:00,88.9,60.8,29.82,East,90,3.6,3.6,39,0.00,,---,0.00,VWS V14.01,2013-05-17 21:41:00,
2013-05-17 17:46:00,87.6,59.6,29.82,East,90,1.6,5.8,39,0.00,,---,0.00,VWS V14.01,2013-05-17 21:46:00,
2013-05-17 17:51:00,88.2,60.8,29.82,NNE,22,6.3,6.3,40,0.00,,---,0.00,VWS V14.01,2013-05-17 21:51:00,
2013-05-17 17:56:00,88.5,60.4,29.82,ESE,112,6.9,6.9,39,0.00,,---,0.00,VWS V14.01,2013-05-17 21:56:00,
2013-05-17 18:01:00,87.3,59.3,29.82,NNE,22,3.6,3.6,39,0.00,,---,0.00,VWS V14.01,2013-05-17 22:01:00,
2013-05-17 18:06:00,85.8,58.7,29.82,North,0,6.5,6.5,40,0.00,,---,0.00,VWS V14.01,2013-05-17 22:06:00,
2013-05-17 18:11:00,84.7,57.8,29.79,North,0,7.8,7.8,40,0.00,,---,0.00,VWS V14.01,2013-05-17 22:11:00,
2013-05-17 18:16:00,84.2,58.0,29.79,ENE,68,3.6,4.7,41,0.00,,---,0.00,VWS V14.01,2013-05-17 22:16:00,
2013-05-17 18:21:00,83.8,58.3,29.79,East,90,3.4,3.4,42,0.00,,---,0.00,VWS V14.01,2013-05-17 22:21:00,
2013-05-17 18:26:00,83.7,58.2,29.82,NE,45,2.9,3.6,42,0.00,,---,0.00,VWS V14.01,2013-05-17 22:26:00,
2013-05-17 18:31:00,83.7,58.8,29.82,East,90,2.7,6.0,43,0.00,,---,0.00,VWS V14.01,2013-05-17 22:31:00,
2013-05-17 18:36:00,83.1,58.3,29.82,ENE,68,9.4,9.4,43,0.00,,---,0.00,VWS V14.01,2013-05-17 22:36:00,
2013-05-17 18:41:00,82.8,58.7,29.82,East,90,4.0,4.3,44,0.00,,---,0.00,VWS V14.01,2013-05-17 22:41:00,
2013-05-17 18:46:00,82.8,58.7,29.82,ESE,112,2.2,7.6,44,0.00,,---,0.00,VWS V14.01,2013-05-17 22:46:00,
2013-05-17 18:51:00,82.8,58.7,29.82,East,90,2.9,3.6,44,0.00,,---,0.00,VWS V14.01,2013-05-17 22:51:00,
2013-05-17 18:56:00,82.8,59.3,29.82,East,90,4.3,4.3,45,0.00,,---,0.00,VWS V14.01,2013-05-17 22:56:00,
2013-05-17 19:01:00,82.6,59.1,29.82,ENE,68,2.0,6.5,45,0.00,,---,0.00,VWS V14.01,2013-05-17 23:01:00,
2013-05-17 19:06:00,82.4,59.0,29.82,SW,225,5.4,5.4,45,0.00,,---,0.00,VWS V14.01,2013-05-17 23:06:00,
2013-05-17 19:11:00,81.9,59.1,29.82,East,90,5.6,5.6,46,0.00,,---,0.00,VWS V14.01,2013-05-17 23:11:00,
2013-05-17 19:16:00,81.3,59.8,29.82,NNE,22,3.4,5.4,48,0.00,,---,0.00,VWS V14.01,2013-05-17 23:16:00,
2013-05-17 19:21:00,81.0,58.9,29.82,SSW,202,0.9,3.6,47,0.00,,---,0.00,VWS V14.01,2013-05-17 23:21:00,
2013-05-17 19:26:00,80.8,59.9,29.82,ENE,68,3.4,6.0,49,0.00,,---,0.00,VWS V14.01,2013-05-17 23:26:00,
2013-05-17 19:31:00,80.4,61.2,29.82,NNE,22,4.0,6.0,52,0.00,,---,0.00,VWS V14.01,2013-05-17 23:31:00,
2013-05-17 19:36:00,80.1,60.3,29.82,ESE,112,2.9,3.8,51,0.00,,---,0.00,VWS V14.01,2013-05-17 23:36:00,
2013-05-17 19:41:00,79.5,60.9,29.82,ENE,68,7.8,10.5,53,0.00,,---,0.00,VWS V14.01,2013-05-17 23:41:00,
2013-05-17 19:46:00,79.0,60.9,29.82,NE,45,4.0,5.8,54,0.00,,---,0.00,VWS V14.01,2013-05-17 23:46:00,
2013-05-17 19:52:00,78.6,61.1,29.82,East,90,2.9,5.4,55,0.00,,---,0.00,VWS V14.01,2013-05-17 23:52:00,
2013-05-17 19:57:00,78.4,62.0,29.82,East,90,7.6,7.6,57,0.00,,---,0.00,VWS V14.01,2013-05-17 23:57:00,
2013-05-17 20:02:00,78.1,61.6,29.82,ENE,68,4.3,9.4,57,0.00,,---,0.00,VWS V14.01,2013-05-18 00:02:00,
2013-05-17 20:07:00,77.7,60.8,29.82,NE,45,3.8,4.0,56,0.00,,---,0.00,VWS V14.01,2013-05-18 00:07:00,
2013-05-17 20:12:00,77.5,61.1,29.82,ESE,112,3.4,4.9,57,0.00,,---,0.00,VWS V14.01,2013-05-18 00:12:00,
2013-05-17 20:17:00,77.2,61.8,29.82,ENE,68,4.3,5.4,59,0.00,,---,0.00,VWS V14.01,2013-05-18 00:17:00,
2013-05-17 20:22:00,77.2,62.2,29.82,ENE,68,4.0,6.5,60,0.00,,---,0.00,VWS V14.01,2013-05-18 00:22:00,
2013-05-17 20:27:00,76.8,61.9,29.82,ESE,112,3.1,5.8,60,0.00,,---,0.00,VWS V14.01,2013-05-18 00:27:00,
2013-05-17 20:32:00,76.6,62.2,29.82,East,90,7.6,7.6,61,0.00,,---,0.00,VWS V14.01,2013-05-18 00:32:00,
2013-05-17 20:37:00,76.5,63.4,29.82,NE,45,4.3,6.3,64,0.00,,---,0.00,VWS V14.01,2013-05-18 00:37:00,
2013-05-17 20:42:00,76.3,62.3,29.85,East,90,3.6,3.6,62,0.00,,---,0.00,VWS V14.01,2013-05-18 00:42:00,
2013-05-17 20:47:00,76.1,63.0,29.85,East,90,1.6,3.4,64,0.00,,---,0.00,VWS V14.01,2013-05-18 00:47:00,
2013-05-17 20:52:00,76.1,63.5,29.85,SE,135,2.9,3.4,65,0.00,,---,0.00,VWS V14.01,2013-05-18 00:52:00,
2013-05-17 20:57:00,75.7,63.2,29.82,ENE,68,3.1,5.4,65,0.00,,---,0.00,VWS V14.01,2013-05-18 00:57:00,
2013-05-17 21:02:00,75.7,63.6,29.82,ESE,112,5.8,5.8,66,0.00,,---,0.00,VWS V14.01,2013-05-18 01:02:00,
2013-05-17 21:07:00,75.6,63.8,29.82,East,90,4.0,4.0,67,0.00,,---,0.00,VWS V14.01,2013-05-18 01:07:00,
2013-05-17 21:12:00,75.4,63.7,29.85,NE,45,3.1,5.8,67,0.00,,---,0.00,VWS V14.01,2013-05-18 01:12:00,
2013-05-17 21:17:00,75.4,63.7,29.85,ESE,112,0.0,0.0,67,0.00,,---,0.00,VWS V14.01,2013-05-18 01:17:00,
2013-05-17 21:22:00,75.2,63.9,29.85,SE,135,2.0,2.0,68,0.00,,---,0.00,VWS V14.01,2013-05-18 01:22:00,
2013-05-17 21:27:00,75.2,63.9,29.85,ENE,68,3.8,4.9,68,0.00,,---,0.00,VWS V14.01,2013-05-18 01:27:00,
2013-05-17 21:32:00,75.0,63.8,29.85,ESE,112,3.1,3.1,68,0.00,,---,0.00,VWS V14.01,2013-05-18 01:32:00,
2013-05-17 21:37:00,74.8,64.0,29.85,NE,45,3.1,3.1,69,0.00,,---,0.00,VWS V14.01,2013-05-18 01:37:00,
2013-05-17 21:42:00,74.8,64.0,29.85,East,90,2.5,2.5,69,0.00,,---,0.00,VWS V14.01,2013-05-18 01:42:00,
2013-05-17 21:47:00,74.7,63.8,29.85,East,90,4.0,4.0,69,0.00,,---,0.00,VWS V14.01,2013-05-18 01:47:00,
2013-05-17 21:52:00,74.7,64.2,29.85,ESE,112,5.8,5.8,70,0.00,,---,0.00,VWS V14.01,2013-05-18 01:52:00,
2013-05-17 21:57:00,74.5,63.7,29.85,ESE,112,2.5,3.4,69,0.00,,---,0.00,VWS V14.01,2013-05-18 01:57:00,
2013-05-17 22:02:00,74.5,64.1,29.85,ESE,112,3.6,3.6,70,0.00,,---,0.00,VWS V14.01,2013-05-18 02:02:00,
2013-05-17 22:07:00,74.5,63.7,29.85,East,90,2.7,2.9,69,0.00,,---,0.00,VWS V14.01,2013-05-18 02:07:00,
2013-05-17 22:12:00,74.3,63.5,29.85,NW,315,3.4,3.6,69,0.00,,---,0.00,VWS V14.01,2013-05-18 02:12:00,
2013-05-17 22:17:00,74.1,63.3,29.85,East,90,4.7,4.7,69,0.00,,---,0.00,VWS V14.01,2013-05-18 02:17:00,
2013-05-17 22:22:00,74.1,63.3,29.85,East,90,3.8,4.9,69,0.00,,---,0.00,VWS V14.01,2013-05-18 02:22:00,
2013-05-17 22:27:00,73.9,63.5,29.85,East,90,1.3,3.1,70,0.00,,---,0.00,VWS V14.01,2013-05-18 02:27:00,
2013-05-17 22:32:00,73.9,63.5,29.85,SE,135,2.0,3.1,70,0.00,,---,0.00,VWS V14.01,2013-05-18 02:32:00,
2013-05-17 22:37:00,73.8,63.4,29.85,East,90,3.4,3.4,70,0.00,,---,0.00,VWS V14.01,2013-05-18 02:37:00,
2013-05-17 22:42:00,73.8,63.4,29.85,East,90,7.2,7.2,70,0.00,,---,0.00,VWS V14.01,2013-05-18 02:42:00,
2013-05-17 22:47:00,73.6,63.2,29.85,NE,45,2.9,3.6,70,0.00,,---,0.00,VWS V14.01,2013-05-18 02:47:00,
2013-05-17 22:52:00,73.6,63.2,29.85,East,90,2.7,2.9,70,0.00,,---,0.00,VWS V14.01,2013-05-18 02:52:00,
2013-05-17 22:57:00,73.6,63.2,29.85,East,90,2.5,3.8,70,0.00,,---,0.00,VWS V14.01,2013-05-18 02:57:00,
2013-05-17 23:02:00,73.6,63.2,29.85,East,90,1.1,2.7,70,0.00,,---,0.00,VWS V14.01,2013-05-18 03:02:00,
2013-05-17 23:07:00,73.4,63.0,29.85,SE,135,3.4,3.4,70,0.00,,---,0.00,VWS V14.01,2013-05-18 03:07:00,
2013-05-17 23:12:00,73.4,63.0,29.85,South,180,2.9,3.1,70,0.00,,---,0.00,VWS V14.01,2013-05-18 03:12:00,
2013-05-17 23:17:00,73.2,63.3,29.85,East,90,3.6,6.0,71,0.00,,---,0.00,VWS V14.01,2013-05-18 03:17:00,
2013-05-17 23:22:00,73.2,63.3,29.85,East,90,2.9,2.9,71,0.00,,---,0.00,VWS V14.01,2013-05-18 03:22:00,
2013-05-17 23:27:00,73.2,63.3,29.85,East,90,4.0,5.8,71,0.00,,---,0.00,VWS V14.01,2013-05-18 03:27:00,
2013-05-17 23:32:00,73.0,63.1,29.85,SE,135,4.0,5.4,71,0.00,,---,0.00,VWS V14.01,2013-05-18 03:32:00,
2013-05-17 23:37:00,73.0,63.5,29.85,East,90,1.6,3.6,72,0.00,,---,0.00,VWS V14.01,2013-05-18 03:37:00,
2013-05-17 23:42:00,73.0,63.5,29.85,East,90,2.7,6.3,72,0.00,,---,0.00,VWS V14.01,2013-05-18 03:42:00,
2013-05-17 23:47:00,73.0,63.5,29.85,NE,45,1.1,2.2,72,0.00,,---,0.00,VWS V14.01,2013-05-18 03:47:00,
2013-05-17 23:53:00,72.9,63.3,29.85,ESE,112,6.5,6.5,72,0.00,,---,0.00,VWS V14.01,2013-05-18 03:53:00,
2013-05-17 23:57:00,72.7,63.1,29.88,ESE,112,3.6,3.8,72,0.00,,---,0.00,VWS V14.01,2013-05-18 03:57:00,